Location: Deep Valley
(39.7548°N, 80.4695°W)
Time: 13:26:55
(UTC+00:00)

ISS - Pass Details

Date: 01 December 2020
Orbit: 418 x 419 km, 51.6° (Epoch: 18 January)

Event Time Altitude Azimuth Distance (km) Brightness Sun altitude
Rises 22:30:07 0° 305° (NW) 2,368 0.5 -6.4°
Reaches altitude 10° 22:33:38 10° 343° (NNW) 1,503 -1.0 -7.1°
Maximum altitude 22:34:37 11° 1° (N) 1,444 -1.3 -7.2°
Drops below altitude 10° 22:35:37 10° 18° (NNE) 1,502 -1.3 -7.4°
Enters shadow 22:36:56 - 37° (NE) 1,733 -1.2 -7.6°
